Regional Weather Roundup
Issued by NWS Newport/Morehead, NC

Home | Current Version | Previous Version | Text Only | Print | Product List | Glossary On
Versions: 1 2 3 4 5 6 7 8 9 10 11 12 13 14 15 16 17 18 19 20 21 22 23 24 25 26 27 28 29 30 31 32 33 34 35 36 37 38 39 40 41 42 43 44 45 46 47 48 49 50
000
ASUS42 KMHX 231425
RWRMHX
WEATHER ROUNDUP FOR EASTERN NORTH CAROLINA
NATIONAL WEATHER SERVICE NEWPORT/MOREHEAD CITY NC
1000 AM EDT WED AUG 23 2017

NOTE: "FAIR" INDICATES FEW OR NO CLOUDS BELOW 12,000 FEET
WITH NO SIGNIFICANT WEATHER AND/OR OBSTRUCTIONS TO VISIBILITY

NCZ015>017-031-032-045>047-102-103-231500-
NORTH COAST

CITY           SKY/WX    TMP DP  RH WIND       PRES   REMARKS
EDENTON        PTSUNNY   84  76  77 CALM      29.88S
ELIZABETH CITY MOSUNNY   85  79  82 SW7       29.87S
KITTY HAWK     SUNNY     84  74  70 CALM      29.87S
MANTEO         SUNNY     85  75  72 W8        29.89R

$$

NCZ045>047-081-094-103-104-231500-
CENTRAL COAST

CITY           SKY/WX    TMP DP  RH WIND       PRES   REMARKS
FRISCO         MOSUNNY   83  77  82 SW10      29.91S

$$

NCZ095-097-098-100-101-231500-
SOUTHERN COAST

CITY           SKY/WX    TMP DP  RH WIND       PRES   REMARKS
BEAUFORT       MOSUNNY   84  78  82 SW14      29.91S
CEDAR ISLAND   NOT AVBL
JACKSONVILLE   MOSUNNY   84  77  79 SW5       29.90S
PINEY ISLAND   MOSUNNY  N/A N/A N/A SW13      29.90S
WILMINGTON     MOSUNNY   84  75  74 SW8       29.91F


$$

NCZ011>013-027>030-043-044-078>080-089-090>093-098-231500-
COASTAL PLAIN

CITY           SKY/WX    TMP DP  RH WIND       PRES   REMARKS
AHOSKIE          N/A     82  76  81 CALM      29.88S
CLINTON        MOSUNNY   82  77  83 SW5       29.91S
ELIZABETHTOWN  NOT AVBL
GOLDSBORO      MOSUNNY   82  81  94 W8        29.89R
GREENVILLE     CLOUDY    82  75  78 W7        29.91S
HAVELOCK       SUNNY     85  75  72 SW9       29.92R
KENANSVILLE    PTSUNNY   82  75  78 SW5       29.91R
KINSTON        PTSUNNY   82  75  78 SW8       29.90S
NEW BERN       SUNNY     85  76  74 VRB7      29.91S
RICHLANDS      PTSUNNY   84  77  79 SW7       29.91S
ROCKY MOUNT    SUNNY     83  76  79 SW7       29.88S
WASHINGTON     SUNNY     84  76  76 SW3       29.89S
WHITEVILLE     MOSUNNY   84  74  70 SW5       29.92S

$$

AMZ130-135-150-152-154-156-158-170-250-252-270-ANZ085-086-088-633-658-670-231500-
MARINE OBSERVATIONS

STATION/POSITION TIME  TEMP    WIND        PRES    WAVE   SWELL
                       AIR SEA DIR/SP/G            HT/PER HT/PER
                 (UTC) (F)     (DEG/KT/KT) (MB)    (FT/S) (FT/S)
CHESAPEAKE LIGHT NOT AVBL
64 E VA BEACH    1350   79 79  230/ 12/ 14 1011.8    5/ 8   3/ 8
DUCK             1400   81 66  240/ 11/ 12 1011.2
2 E DUCK         1400      69                N/A     2/ 9   2/14
OREGON INLET     1400   82 83  210/ 12/ 13 1012.0
13E OREGON INLT  1348      79                N/A     3/ 9   2/ 9
HATTERAS CG      1400   82 83  230/  9/ 12 1012.7
DIAMOND BUOY     1350   83 84  260/ 14/ 16 1012.7    4/ 5   2/10
CAPE LOOKOUT     1400   81     220/  7/ 10 1012.7
BEAUFORT LAB     1400   83 80  240/  5/ 12 1012.4
30 SE NEW RVR IN 1408   79 83  250/ 14/ 17 1013.2
30 SE NEW RVR IN 1343      83                N/A     5/ 5   2/11
27 SE WRIGHTSVLE 1408   80 83  220/ 14/ 19 1013.3
5 SE WRIGHTSVLE  1408   83 84  220/ 12/ 17 1013.0
225 S CAPE HAT   1350   83 84  280/  6/  8 1015.1    3/ 8   3/ 8
41 SE CHARLESTON 1410   80 84  300/  2/  6 1014.0

$$




USA.gov is the U.S. government's official web portal to all federal, state and local government web resources and services.